Location: Binningen
(47.7924°N, 8.7261°E)
Time: 04:35:35
(UTC+00:00)

Cosmos 1610 Rocket - Pass Details

Date: 17 May 2021
Orbit: 952 x 1003 km, 82.9° (Epoch: 14 June)

Event Time Altitude Azimuth Distance (km) Brightness Sun altitude
Rises 20:37:47 0° 350° (N) 3,642 8.6 -13.3°
Reaches altitude 10° 20:40:17 10° 351° (N) 2,691 7.8 -13.6°
Maximum altitude 20:46:27 89° 77° (ENE) 960 4.4 -14.2°
Enters shadow 20:51:25 17° 173° (S) 2,242 5.9 -14.7°
